www.pogodaiklimat.ru

Погода и климат >> Архив погоды >> Мексика >> Пуэрто-Пеньяско


ПОГОДА в Пуэрто-Пеньяско

  • Прогноз погоды в Пуэрто-Пеньяско
  • Монитор погоды в Пуэрто-Пеньяско

АРХИВ ПОГОДЫ в Пуэрто-Пеньяско

Время (UTC), дата Ветер
(напр.,м/с)
 
Видим.   Явления Облачность Т
(С)
Тd
(С)
f
(%)
Тe
(С)
Тes
(С)
Комфортность P
(гПа)
Po
(гПа)
Тmin
(С)
Tmax
(С)
R
(мм)
R24
(мм)
S
(см)
00 15.09 ЮЗ 6 35 км ясно +33.3 +24.6 60 +46 +47 опасность
перегрева
1009.5 1002.7 +27.5 +37.5
00 16.09 СВ 1 35 км ясно +32.8 +27.2 72 +51 +54 опасность
перегрева
1009.1 1002.3 +28.6 +37.0
15 16.09 В 3 35 км 3/0 2000 м
[Ac trans]
+30.0 +25.7 78 +45 +46 опасность
перегрева
1011.9 1005.0
18 16.09 ЮВ 5 35 км 5/0 2000 м
[Ac As]
+34.2 +25.1 59 +48 +53 опасность
перегрева
1012.0 1005.2 +27.5 +35.3
00 17.09 СВ 1 35 км 6/0 2000 м
[Ac trans]
+33.0 +26.7 70 +51 +53 опасность
перегрева
1008.7 1001.9 +27.5 +36.5
03 17.09 ЮВ 4 20 км ясно +30.0 +26.2 80 +45 +45 опасность
перегрева
1009.5 1002.7
15 17.09 ЮВ 4 35 км ясно +30.5 +23.8 67 +42 +43 опасность
перегрева
1012.0 1005.1
18 17.09 ЮВ 5 35 км ясно +34.5 +23.7 54 +46 +53 опасность
перегрева
1012.8 1006.0 +26.1 +34.8
21 17.09 Ю 3 35 км ясно +36.0 +26.3 58 +53 +64 опасность
перегрева
1011.0 1004.1
00 18.09 Ю 1 35 км ясно +33.0 +26.8 70 +51 +54 опасность
перегрева
1009.2 1002.4 +26.0 +36.3
03 18.09 СВ 1 20 км ясно +29.3 +25.8 81 +43 +43 опасность
перегрева
1009.2 1002.4
15 18.09 В 3 35 км ясно +27.0 +24.3 85 +38 +40 очень
душно
1011.4 1004.4
18 18.09 Ю 2 35 км ясно +34.5 +26.5 63 +51 +65 опасность
перегрева
1011.8 1004.9 +24.3 +34.7
21 18.09 Ю 3 35 км ясно +36.4 +25.6 54 +51 +63 опасность
перегрева
1010.0 1003.2
00 19.09 ЮВ 1 35 км ясно +33.4 +25.1 62 +47 +50 опасность
перегрева
1008.5 1001.6 +24.3 +36.5
03 19.09 ЮВ 3 20 км ясно +29.6 +24.8 75 +42 +42 опасность
перегрева
1008.3 1001.5
12 19.09 ЮВ 6 20 км ясно +29.8 +21.7 62 +38 +38 очень
душно
1007.4 1000.6 +29.0 +36.5
15 19.09 Ю 6 35 км ясно +32.0 +22.4 57 +41 +42 опасность
перегрева
1008.5 1001.6
18 19.09 Ю 4 35 км ясно +35.4 +20.8 43 +42 +51 опасность
перегрева
1008.8 1002.0 +29.2 +35.8
21 19.09 ЮЗ 3 35 км 3/0 2000 м
[Ac trans]
+35.5 +24.4 53 +48 +57 опасность
перегрева
1007.3 1000.5
00 20.09 ЮЗ 5 35 км ясно +34.0 +18.3 39 +38 +39 очень
душно
1005.8 999.0 +29.0 +37.4
03 20.09 ЮВ 2 20 км ясно +29.8 +21.7 62 +38 +38 очень
душно
1005.7 998.9
12 20.09 СВ 3 20 км ясно +23.0 +13.2 54 +26 +26 жарко 1007.4 1000.5 +22.9 +37.4
15 20.09 СВ 3 35 км ясно +27.0 +22 +24 комфорт 1009.5 1002.5
18 20.09 ЮЗ 1 35 км ясно +33.6 +20.0 45 +40 +55 опасность
солнечного
удара
1010.4 1003.4 +21.9 +34.4
21 20.09 З 5 35 км ясно +37.0 +15.5 28 +39 +46 очень
душно
1008.9 1002.0
00 21.09 ЮЗ 5 35 км ясно +34.0 +17.2 37 +37 +39 очень
душно
1007.9 1001.1 +22.0 +37.1
03 21.09 ЮЗ 4 20 км ясно +29.6 +18.1 50 +34 +34 очень
душно
1008.3 1001.5
15 21.09 СВ 3 35 км ясно +26.0 +15.2 51 +29 +30 душно 1011.6 1004.5

 

Местоположение метеостанции Пуэрто-Пеньяско (Мексика): широта 31.30 долгота -113.55 высота над уровнем моря 62 м.

В архиве по умолчанию представлена погода в Пуэрто-Пеньяско за последнюю неделю. Архивные данные за месяц целиком и за предыдущие месяцы, начиная с января 2011 года, Вы можете получить, выбрав интересующий диапазон дат из раскрывающегося списка и нажав кнопку "Ввод!".


*Определитесь, кто Вы:
робот инопланетянин человек

Внимание! Время в таблицах - всемирное. Для получения местного времени необходимо прибавить поправку, которая равна -8 ч.

Смотрите также архив погоды в соседних городах и на ближайших метеорологических станциях:

Погода в Сан-Фелипе (Мексика) (123 км)
Погода в Альтаре (Мексика) (176 км)
Погода в Нуэво Леон (Мексика) (191 км)
Погода в Эрмосильо (Мексика) (344 км)
Погода в Эрмосильо Магна (Мексика) (351 км)
Погода в Накосари де Гарсия (Мексика) (384 км)
Погода в Гуаймасе (Мексика) (456 км)
Погода в Эмпальме (Мексика) (463 км)
Погода в Санта-Розалии (Мексика) (465 км)
Погода в Нуэво-Касас-Грандесе (Мексика) (549 км)

Пояснения к столбцам:

Ветер - указаны скорость ветра в м/с - средняя за 10 мин, порывы в срок и между сроками (в фигурных скобках) и направление, откуда дует ветер: С - северный, СВ - северо-восточный, В - восточный, ЮВ - юго-восточный, Ю - южный, ЮЗ - юго-западный, З - западный, СЗ - северо-западный.
Видимость - горизонтальная дальность видимости в метрах или километрах. При видимости от 1 до 10 км при отсутствии осадков обычно наблюдается дымка, при ухудшении видимости до 1 км и менее - туман. В сухую погоду видимость может ухудшаться дымом, пылью или мглою.
Явления - указаны атмосферные явления, наблюдавшиеся в срок или в последний час перед сроком; фигурными скобками обозначены явления, наблюдавшиеся между сроками (за 1-3 часа до срока); квадратными скобками обозначены град или гололедные отложения с указанием их диаметра в мм.
Облачность - указаны через наклонную черту общая и нижняя облачность в баллах и высота нижней границы облаков в метрах; квадратными скобками обозначены формы облаков: Ci - перистые, Cs - перисто-слоистые, Cc - перисто-кучевые, Ac - высококучевые, As - высокослоистые, Sc - слоисто-кучевые, Ns - слоисто-дождевые, Cu - кучевые, Cb - кучево-дождевые. Подробнее классификацию облаков см. в Атласе облаков (PDF).
T - Температура воздуха - температура, измеренная на высоте 2 м над землей.
Td - Температура точки росы - температура, при понижении до которой содержащийся в воздухе водяной пар достигнет насыщения.
f - Относительная влажность воздуха - влажноcть воздуха, измеренная на высоте 2 м над землей.
Te - Эффективная температура - температура, которую ощущает одетый по сезону человек в тени. Характеристика душности погоды. При расчете учитывается влияние влажности воздуха и скорости ветра на теплоощущения человека.
Tes - Эффективная температура на солнце - температура, которую ощущает человек, с поправкой на солнечный нагрев. Характеристика знойности погоды. Зависит от высоты солнца над горизонтом, облачности и скорости ветра. Ночью, в пасмурную погоду, а также при ветре 12 м/с и более поправка равна нулю.
P - Атмосферное давление - приведенное к уровню моря атмосферное давление.
Po - Атмосферное давление - измеренное на уровне метеостанции атмосферное давление.
Tmin - Минимальная температура - минимум температуры воздуха на высоте 2 м над землей.
Tmax - Максимальная температура - максимум температуры воздуха на высоте 2 м над землей.
R - Количество осадков - Количество выпавших осадков за период времени, мм. При наведении курсора мыши на число - период времени, за который выпало указанное количество осадков.
R24 - Количество осадков - Количество выпавших осадков за 24 часа, мм.
S - Снежный покров - Высота снежного покрова, см. При наведении курсора мыши на число - состояние снежного покрова и степень покрытия местности в баллах.